Regional Weather Roundup
Issued by NWS

Home | Current Version | Previous Version | Text Only | Print | Product List | Glossary On
Versions: 1 2 3 4 5 6 7 8 9 10 11 12 13 14 15 16 17 18 19 20 21 22 23 24 25 26 27 28 29 30 31 32 33 34 35 36 37 38 39 40 41 42 43 44 45 46 47 48 49 50
000
ASUS42 KTBW 030817
RWRFL
FLORIDA REGIONAL WEATHER ROUNDUP
NATIONAL WEATHER SERVICE TAMPA BAY RUSKIN FL
400 AM EDT SUN MAY 03 2015

NOTE: "FAIR" INDICATES FEW OR NO CLOUDS BELOW 12,000 FEET WITH NO
SIGNIFICANT WEATHER AND/OR OBSTRUCTIONS TO VISIBILITY.


FLZ001>010-012>015-112-114-115-030900-
PANHANDLE FLORIDA

CITY           SKY/WX    TMP DP  RH WIND       PRES   REMARKS
PENSACOLA      CLEAR     58  55  90 N3        30.07F
PENSACOLA NAS  CLEAR     54  53  97 CALM      30.07S
MILTON NAS     CLEAR     52  50  93 CALM      30.08
CRESTVIEW      CLEAR     50  48  93 CALM      30.10S
DUKE FIELD     FAIR      50  48  92 CALM      30.07F
MARY ESTHER    CLEAR     54  51  87 N2        30.06F
PANAMA CITY    FAIR      54  52  93 CALM      30.07F
TYNDALL AFB    CLEAR     57  55  94 CALM      30.08S
APALACHICOLA   CLEAR     59  53  80 NE5       30.08S

STATION/POSITION SKY/WX   TEMP    WIND        PRES    WAVE   SWELL
                          AIR SEA DIR/SP/G            HT/PER HT/PER
                          (F)     (DEG/KT/KT) (MB)    (FT/S) (FT/S)
30.1N   87.6W              72 74  140/  4/  6 1017.7F   1
29.2N   88.2W              72 74  140/  6/  8 1018.2F   1/ 5
28.8N   86.0W              71 74   60/  6/ 10 1018.4F   1/ 4   2/ 4
PANAMA CITY BEAC           66 73  350/  5/  5 1018.4F
CAPE SAN BLAS    NOT AVBL
TOWER C                    70      10/ 13/ 14 1018.0F
28.5N   84.5W              74 74   70/ 16/ 19 1017.9F   1/ 3

$$
FLZ011-016>038-118-127-128-134-139-239-030900-
NORTH FLORIDA

CITY           SKY/WX    TMP DP  RH WIND       PRES   REMARKS
MARIANNA       CLEAR     56  54  93 CALM      30.09S
TALLAHASSEE    CLEAR     56  51  84 CALM      30.09S
PERRY          CLEAR     55  52  88 E3        30.11S
CROSS CITY       N/A     56  53  90 CALM      30.11R
LAKE CITY      FAIR      52  52 100 CALM      30.11S
GAINESVILLE    CLEAR     52  50  93 CALM      30.11S
MAYPORT NAS    CLEAR     61  54  77 CALM      30.10S
JACKSONVILLE   CLEAR     53  51  93 CALM      30.10S
JAX NAS        CLEAR     66  54  65 CALM      30.11S
JAX CRAIG      CLEAR     56  52  86 CALM      30.11S
JAX CECIL      CLEAR     48  46  93 CALM      30.12R
FERNANDINA BEA FAIR      63  54  72 CALM      30.09S
ST AUGUSTINE   CLEAR     58  54  86 CALM      30.11S

STATION/POSITION SKY/WX   TEMP    WIND        PRES    WAVE   SWELL
                          AIR SEA DIR/SP/G            HT/PER HT/PER
                          (F)     (DEG/KT/KT) (MB)    (FT/S) (FT/S)
SHELL POINT                64     340/  7/ 10   N/A
KEATON BEACH               63     160/  3/  4 1019.4S
CEDAR KEY                  69     130/  8/  9 1019.5F
FERNANDINA                 64 72   CALM  /  1 1018.8F
30.7N   81.3W                 71                N/A     3/15   2/15
MAYPORT                    66 72  130/  2/  4 1019.4F
31.4N   80.9W              69 69  220/  6/  8 1019.7F   3/14   3/14
ST AUGUSTINE               70 70   80/  6/  7 1020.2S

$$
FLZ040-043>046-052-053-057-058-063-144-030900-
INTERIOR CENTRAL FLORIDA

CITY           SKY/WX    TMP DP  RH WIND       PRES   REMARKS
OCALA          CLEAR     54  48  82 CALM      30.11R
THE VILLAGES     N/A     59  57  94 CALM      30.01R
LEESBURG       CLEAR     63  55  75 CALM      30.11R
SANFORD        CLEAR     60  55  83 E3        30.10R
ORLANDO EXEC   CLEAR     64  54  69 E5        30.09S
ORLANDO INTL   PTCLDY    66  57  72 NE10      30.10S
WINTER HAVEN   PTCLDY    64  59  83 NE7       30.10S
LAKELAND       PTCLDY    63  57  82 CALM      30.09S
BARTOW         FAIR      63  57  82 CALM      30.10S
OKEECHOBEE     CLEAR     55  55 100 CALM      30.08S

$$
FLZ041-047-054-059-064-141-147-030900-
EAST CENTRAL FLORIDA

CITY           SKY/WX    TMP DP  RH WIND       PRES   REMARKS
DAYTONA BEACH  CLEAR     58  55  90 CALM      30.10S
DELAND           N/A     55  52  88 CALM      30.11S
JFK SPACE CTR  CLEAR     57  53  87 N2        30.08S
CAPE CANAVERAL CLEAR     65  50  58 N6        30.07S
PATRICK AFB    CLEAR     72  55  55 N12       30.07S
MELBOURNE      PTCLDY    71  54  54 NE9       30.08R
VERO BEACH     CLEAR     68  53  58 NE6       30.07S
FT PIERCE      CLOUDY    64  56  75 CALM      30.07R
STUART         CLEAR     68  52  56 E5        30.07S

STATION/POSITION SKY/WX   TEMP    WIND        PRES    WAVE   SWELL
                          AIR SEA DIR/SP/G            HT/PER HT/PER
                          (F)     (DEG/KT/KT) (MB)    (FT/S) (FT/S)
28.5N   80.2W              73 76   10/ 10/ 12 1018.7F
28.9N   78.5W              72 78   30/  8/ 12 1019.0F
TRIDENT PIER               63 77   20/  4/  5 1019.1F
28.4N   80.5W                 76                N/A     3/13   2/13
27.5N   80.2W                 78                N/A     4/10   2/11

$$
FLZ050-056-061-142-242-148-248-149-249-151-251-155-255-
160-260-030900-
WEST CENTRAL FLORIDA

CITY           SKY/WX    TMP DP  RH WIND       PRES   REMARKS
CRYSTAL RIVER  FAIR      57  54  88 CALM      30.10S
INVERNESS      FAIR      57  12  17 CALM      30.11S
BROOKSVILLE    PTCLDY    58  55  90 CALM      30.11S
CLEARWATER     CLEAR     69  59  70 E7        30.09S
TAMPA INTL     PTCLDY    67  57  70 NE6       30.09F
TAMPA EXEC     MOCLDY    63  59  88 CALM      30.10S
PLANT CITY     PTCLDY    63  59  88 CALM      30.11S
MACDILL AFB    CLEAR     66  61  85 E10       30.08S
PETER O KNIGHT CLEAR     68  61  77 NE7       30.09S
ST PETERSBURG  CLEAR     71  60  68 E13       30.08S
SARASOTA       CLEAR     63  57  81 E8        30.06S
VENICE         FAIR      64  59  82 E7        30.08S

STATION/POSITION SKY/WX   TEMP    WIND        PRES    WAVE   SWELL
                          AIR SEA DIR/SP/G            HT/PER HT/PER
                          (F)     (DEG/KT/KT) (MB)    (FT/S) (FT/S)
CEDAR KEY                  69     130/  8/  9 1019.5F
28.5N   84.5W              74 74   70/ 16/ 19 1017.9F   1/ 3
27.3N   84.2W                 76                N/A     2/ 4
CLEARWATER BEACH           69 76   80/  6/ 12 1018.7F
MIDDLE TAMPA BAY           69      90/ 13/ 15 1018.7F
VENICE                     66 79   70/  5/  6 1018.0S

$$
FLZ066-069-070-075>078-162-262-165-265-030900-
SOUTHWEST FLORIDA AND KEYS

CITY           SKY/WX    TMP DP  RH WIND       PRES   REMARKS
PUNTA GORDA    CLEAR     59  58  96 NE7       30.08S
FT MYERS       CLEAR     64  60  87 NE3       30.06R
SOUTHWEST INTL CLEAR     63  59  87 NE5       30.06S
NAPLES         MOCLDY    67  60  78 NE6       30.05S
MARCO ISLAND   SUNNY     64  57  77 NE7       30.04S
IMMOKALEE      SUNNY    N/A N/A N/A CALM      30.06F
MARATHON       CLEAR     76  62  62 E14       30.01S
KEY WEST NAS   CLEAR     75  62  64 E13       30.00F
KEY WEST INTL  CLEAR     75  63  66 E10       30.00F

STATION/POSITION SKY/WX   TEMP    WIND        PRES    WAVE   SWELL
                          AIR SEA DIR/SP/G            HT/PER HT/PER
                          (F)     (DEG/KT/KT) (MB)    (FT/S) (FT/S)
VENICE                     66 79   70/  5/  6 1018.0S
NAPLES                     69 77   60/  5/  8 1017.4F
26.0N   85.6W              73 80   50/  8/ 10 1017.0F   2/ 6   2/ 6
DRY TORTUGAS               77     100/ 20/ 22 1015.2F
NW FL BAY                  74      70/ 14/ 16 1016.8
SAND KEY                   77     100/ 20/ 22 1015.4F
SOMBRERO KEY               76      80/ 21/ 25 1016.0F
LONG KEY                   76 77   80/ 17/ 19 1017.0S
MOLASSES REEF              75 78   70/ 19/ 21 1016.3F

$$
FLZ067-068-071>074-168-172>174-030900-
SOUTHEAST FLORIDA

CITY           SKY/WX    TMP DP  RH WIND       PRES   REMARKS
W PALM BEACH   PTCLDY    73  57  57 E8        30.06S
FT LAUDER-EXEC CLEAR     73  54  51 NE9       30.05S
FT LAUDERDALE  PTCLDY    73  56  54 E10       30.04S
POMPANO BEACH  PTCLDY    73  53  49 NE14      30.05S
PEMBROKE PINES CLEAR     71  55  56 E8        30.05F
OPA LOCKA      CLEAR     71  54  54 NE8       30.05S
MIAMI          PTCLDY    73  54  51 NE7       30.04S
WEST KENDALL   CLEAR     71  57  61 NE7       30.04S
HOMESTEAD      CLEAR     73  58  59 NE12      30.03S

STATION/POSITION SKY/WX   TEMP    WIND        PRES    WAVE   SWELL
                          AIR SEA DIR/SP/G            HT/PER HT/PER
                          (F)     (DEG/KT/KT) (MB)    (FT/S) (FT/S)
PORT EVERGLADES            75      60/ 15/ 18 1017.2F
VIRGINIA KEY               74 79   60/ 11/ 18 1016.6F
LAKE WORTH                 74 79   50/ 15/ 19 1017.2F
SETTLEMENT POINT           73      60/ 15/ 17 1018.4S

$$



USA.gov is the U.S. government's official web portal to all federal, state and local government web resources and services.